EW8163 Weather Reports


Display with metric or nautical units.
time (UTC)temp
F
wind
direction
speed
MPH
gust
MPH
rain 1hr
in
rain 24hr
in
rain mn
in
humidity
%
barometer
mb
20260510211639 82 117 2.0 6.0 0.00 0.00 0.00 29 1021.1
20260510211539 82 111 2.0 3.0 0.00 0.00 0.00 28 1021.0
20260510210538 82 68 4.0 7.0 0.00 0.00 0.00 30 1020.8
20260510205539 81 273 0.0 1.0 0.00 0.00 0.00 34 1021.0
20260510205441 81 305 2.0 5.0 0.00 0.00 0.00 34 1020.9
20260510204539 81 330 2.0 5.0 0.00 0.00 0.00 37 1020.7
20260510203637 81 54 1.0 3.0 0.00 0.00 0.00 33 1020.7
20260510203555 81 3 1.0 4.0 0.00 0.00 0.00 33 1020.7
20260510202638 80 50 2.0 5.0 0.00 0.00 0.00 34 1020.8
20260510201640 79 56 2.0 4.0 0.00 0.00 0.00 33 1020.9
20260510200639 79 316 1.0 2.0 0.00 0.00 0.00 36 1020.8
20260510194638 77 9 3.0 5.0 0.00 0.00 0.00 39 1020.9
20260510194539 77 3 1.0 3.0 0.00 0.00 0.00 39 1020.9
20260510193540 78 7 1.0 3.0 0.00 0.00 0.00 39 1020.9
20260510192539 77 16 0.0 1.0 0.00 0.00 0.00 40 1020.8
20260510191638 78 342 4.0 7.0 0.00 0.00 0.00 38 1020.9
20260510190638 76 14 1.0 3.0 0.00 0.00 0.00 38 1020.9
20260510185640 77 114 3.0 5.0 0.00 0.00 0.00 39 1020.9
20260510184738 75 325 0.0 4.0 0.00 0.00 0.00 37 1021.2
20260510182838 78 325 2.0 4.0 0.00 0.00 0.00 34 1021.1
20260510181840 79 8 3.0 5.0 0.00 0.00 0.00 33 1020.9
20260510180839 78 49 0.0 3.0 0.00 0.00 0.00 33 1020.9
20260510180739 78 114 1.0 4.0 0.00 0.00 0.00 33 1020.9
20260510180638 78 29 0.0 2.0 0.00 0.00 0.00 34 1020.9
20260510175640 78 135 0.0 1.0 0.00 0.00 0.00 31 1020.8
20260510173737 79 50 2.0 4.0 0.00 0.00 0.00 27 1020.7
20260510172739 79 139 1.0 4.0 0.00 0.00 0.00 28 1020.8
20260510172637 79 184 0.0 1.0 0.00 0.00 0.00 28 1020.8
20260510171638 79 149 1.0 4.0 0.00 0.00 0.00 25 1020.8
20260510170639 80 360 3.0 5.0 0.00 0.00 0.00 26 1020.7
20260510165638 78 335 1.0 2.0 0.00 0.00 0.00 25 1020.8
20260510164737 78 45 0.0 1.0 0.00 0.00 0.00 29 1020.8
20260510161737 71 292 0.0 0.0 0.00 0.00 0.00 50 1020.9
20260510160739 69 292 0.0 0.0 0.00 0.00 0.00 54 1020.9
20260510155838 67 292 0.0 0.0 0.00 0.00 0.00 62 1021.0
20260510154837 65 292 0.0 0.0 0.00 0.00 0.00 64 1021.0
20260510154740 65 292 0.0 0.0 0.00 0.00 0.00 65 1021.0
20260510153738 63 292 0.0 0.0 0.00 0.00 0.00 70 1021.1
20260510152837 61 292 0.0 0.0 0.00 0.00 0.00 71 1021.1
20260510151839 58 292 0.0 0.0 0.00 0.00 0.00 79 1021.1
20260510150854 56 292 0.0 0.0 0.00 0.00 0.00 82 1021.1
20260510145839 53 292 0.0 0.0 0.00 0.00 0.00 85 1021.1
20260510140937 43 292 0.0 0.0 0.00 0.00 0.00 98 1020.6
20260510140838 43 292 0.0 0.0 0.00 0.00 0.00 97 1020.6
20260510135839 41 292 0.0 0.0 0.00 0.00 0.00 98 1020.3
20260510135738 41 292 0.0 0.0 0.00 0.00 0.00 98 1020.3
20260510135639 41 292 0.0 0.0 0.00 0.00 0.00 97 1020.3
20260510134737 40 292 0.0 0.0 0.00 0.00 0.00 97 1020.1
20260510134638 40 292 0.0 0.0 0.00 0.00 0.00 98 1020.1
20260510133736 40 292 0.0 0.0 0.00 0.00 0.00 97 1020.2
20260510132740 40 292 0.0 0.0 0.00 0.00 0.00 97 1020.1
20260510131836 40 292 0.0 0.0 0.00 0.00 0.00 97 1020.1
20260510131737 40 292 0.0 0.0 0.00 0.00 0.00 98 1020.0
20260510131638 40 292 0.0 0.0 0.00 0.00 0.00 98 1020.0
20260510130638 40 292 0.0 0.0 0.00 0.00 0.00 97 1020.0
20260510130538 40 292 0.0 0.0 0.00 0.00 0.00 97 1019.9
20260510130439 40 292 0.0 0.0 0.00 0.00 0.00 98 1019.8
20260510125439 40 292 0.0 0.0 0.00 0.00 0.00 97 1019.9
20260510125338 40 292 0.0 0.0 0.00 0.00 0.00 97 1019.9
20260510124437 40 292 0.0 0.0 0.00 0.00 0.00 98 1020.0
20260510121438 41 292 0.0 0.0 0.00 0.00 0.00 98 1019.9
20260510120437 41 292 0.0 0.0 0.00 0.00 0.00 98 1019.8
20260510115536 41 292 0.0 0.0 0.00 0.00 0.00 98 1020.0
20260510114540 41 292 0.0 0.0 0.00 0.00 0.00 97 1019.9
20260510114439 41 292 0.0 0.0 0.00 0.00 0.00 96 1019.8
20260510113337 41 292 0.0 0.0 0.00 0.00 0.00 96 1019.8
20260510113238 41 292 0.0 0.0 0.00 0.00 0.00 97 1019.8
20260510112140 42 292 0.0 0.0 0.00 0.00 0.00 97 1020.0
20260510111137 42 292 0.0 0.0 0.00 0.00 0.00 97 1020.0
20260510111037 42 292 0.0 0.0 0.00 0.00 0.00 97 1020.0
20260510110040 42 292 0.0 0.0 0.00 0.00 0.00 97 1019.9
20260510105039 42 292 0.0 0.0 0.00 0.00 0.00 96 1020.0
20260510104136 42 292 0.0 0.0 0.00 0.00 0.00 96 1019.9
20260510103039 42 292 0.0 0.0 0.00 0.00 0.00 96 1019.8
20260510102040 42 292 0.0 0.0 0.00 0.00 0.00 96 1019.7
20260510100237 42 292 0.0 0.0 0.00 0.00 0.00 97 1019.8
20260510100139 42 292 0.0 0.0 0.00 0.00 0.00 96 1019.8
20260510094238 43 292 0.0 0.0 0.00 0.00 0.00 97 1019.9
20260510093239 43 292 0.0 0.0 0.00 0.00 0.00 96 1020.1
20260510092337 43 292 0.0 0.0 0.00 0.00 0.00 96 1020.0
20260510092240 43 292 0.0 0.0 0.00 0.00 0.00 97 1020.0
20260510091238 43 292 0.0 0.0 0.00 0.00 0.00 95 1020.0
20260510090252 44 292 0.0 0.0 0.00 0.00 0.00 97 1020.0
20260510085238 44 292 0.0 0.0 0.00 0.00 0.00 96 1020.0
20260510084238 44 292 0.0 0.0 0.00 0.00 0.00 96 1020.1
20260510084137 44 292 0.0 0.0 0.00 0.00 0.00 96 1020.0
20260510083138 44 292 0.0 0.0 0.00 0.00 0.00 97 1020.2
20260510083036 44 292 0.0 0.0 0.00 0.00 0.00 96 1020.2
20260510081039 44 292 0.0 0.0 0.00 0.00 0.00 96 1020.2
20260510080138 44 292 0.0 0.0 0.00 0.00 0.00 95 1020.3
20260510080054 44 292 0.0 0.0 0.00 0.00 0.00 95 1020.3
20260510075138 45 292 0.0 0.0 0.00 0.00 0.00 95 1020.3
20260510074039 45 292 0.0 0.0 0.00 0.00 0.00 95 1020.4
20260510073039 45 292 0.0 0.0 0.00 0.00 0.00 95 1020.4
20260510072939 45 292 0.0 0.0 0.00 0.00 0.00 94 1020.4
20260510071938 45 292 0.0 0.0 0.00 0.00 0.00 94 1020.6
20260510070938 45 292 0.0 0.0 0.00 0.00 0.00 93 1020.4
20260510070022 45 292 0.0 0.0 0.00 0.00 0.00 95 1020.5
20260510064021 45 292 0.0 0.0 0.00 0.00 0.00 93 1020.6
20260510063022 46 292 0.0 0.0 0.00 0.00 0.00 93 1020.5
20260510062121 46 292 0.0 0.0 0.00 0.00 0.00 94 1020.4
20260510061120 46 292 0.0 0.0 0.00 0.00 0.00 93 1020.4
20260510060121 47 292 0.0 0.0 0.00 0.00 0.00 93 1020.6
20260510055122 47 292 0.0 0.0 0.00 0.00 0.00 93 1020.7
20260510054122 47 292 0.0 0.0 0.00 0.00 0.00 90 1020.7
20260510053121 47 292 0.0 0.0 0.00 0.00 0.00 90 1020.7
20260510053021 47 292 0.0 0.0 0.00 0.00 0.00 91 1020.7
20260510052038 48 292 0.0 0.0 0.00 0.00 0.00 89 1020.9
20260510051021 48 292 0.0 0.0 0.00 0.00 0.00 87 1020.8
20260510050021 48 292 0.0 0.0 0.00 0.00 0.00 89 1020.9
20260510045020 49 292 0.0 0.0 0.00 0.00 0.00 88 1020.8
20260510043021 50 292 0.0 0.0 0.00 0.00 0.00 87 1020.8
20260510042922 50 292 0.0 0.0 0.00 0.00 0.00 87 1020.6
20260510041922 51 292 0.0 0.0 0.00 0.00 0.00 86 1020.6
20260510040922 51 292 0.0 0.0 0.00 0.00 0.00 86 1020.4
20260510034921 53 292 0.0 0.0 0.00 0.00 0.00 85 1020.2
20260510034822 53 292 0.0 0.0 0.00 0.00 0.00 85 1020.3
20260510033822 54 292 0.0 0.0 0.00 0.00 0.00 85 1020.3
20260510032921 55 292 0.0 0.0 0.00 0.00 0.00 85 1020.1
20260510031922 55 292 0.0 0.0 0.00 0.00 0.00 85 1020.0
20260510030921 56 292 0.0 0.0 0.00 0.00 0.00 83 1019.9
20260510025921 57 292 0.0 0.0 0.00 0.00 0.00 82 1019.9
20260510025821 57 292 0.0 0.0 0.00 0.00 0.00 81 1019.8
20260510023920 59 292 0.0 0.0 0.00 0.00 0.00 80 1019.6
20260510022922 59 292 0.0 0.0 0.00 0.00 0.00 78 1019.6
20260510022021 61 292 0.0 0.0 0.00 0.00 0.00 75 1019.6
20260510021021 62 292 0.0 0.0 0.00 0.00 0.00 72 1019.5
20260510020023 64 292 0.0 0.0 0.00 0.00 0.00 69 1019.5
20260510015119 65 292 0.0 0.0 0.00 0.00 0.00 65 1019.3
20260510014121 68 292 0.0 1.0 0.00 0.00 0.00 58 1019.5
20260510012121 71 15 0.0 3.0 0.00 0.00 0.00 51 1019.0
20260510011221 72 310 0.0 2.0 0.00 0.00 0.00 50 1018.9
20260510011121 72 135 0.0 2.0 0.00 0.00 0.00 50 1018.9
20260510010122 74 323 1.0 3.0 0.00 0.00 0.00 50 1019.0
20260510005221 72 360 0.0 0.0 0.00 0.00 0.00 51 1019.0
20260510004222 73 164 0.0 1.0 0.00 0.00 0.00 50 1018.8
20260510003221 74 85 0.0 2.0 0.00 0.00 0.00 49 1018.9
20260510002320 73 114 1.0 2.0 0.00 0.00 0.00 50 1018.9
20260510001320 72 110 2.0 4.0 0.00 0.00 0.00 51 1018.8
20260510001220 72 90 0.0 3.0 0.00 0.00 0.00 51 1018.8
20260510000221 73 127 2.0 4.0 0.00 0.00 0.00 50 1018.9
20260509235221 74 62 1.0 4.0 0.00 0.00 0.00 48 1018.8
20260509233221 74 163 2.0 4.0 0.00 0.00 0.00 50 1018.9
20260509231220 74 161 1.0 4.0 0.00 0.00 0.00 48 1018.8
20260509230220 76 39 1.0 4.0 0.00 0.00 0.00 47 1018.7
20260509225119 74 46 1.0 3.0 0.00 0.00 0.00 49 1018.9
20260509223120 74 70 3.0 6.0 0.00 0.00 0.00 51 1019.2
20260509222119 73 79 3.0 5.0 0.00 0.00 0.00 50 1019.2
20260509222021 73 116 1.0 3.0 0.00 0.00 0.00 50 1019.2
20260509221022 74 134 1.0 5.0 0.00 0.00 0.00 50 1019.3
20260509220021 73 103 2.0 5.0 0.00 0.00 0.00 47 1019.3
20260509215119 74 360 0.0 3.0 0.00 0.00 0.00 48 1019.5
20260509214119 74 74 0.0 1.0 0.00 0.00 0.00 49 1019.5
20260509213120 74 61 2.0 5.0 0.00 0.00 0.00 48 1019.6